Time,TemperatureF,DewpointF,PressureIn,WindDirection,WindDirectionDegrees,WindSpeedMPH,WindSpeedGustMPH,Humidity,HourlyPrecipIn,Conditions,Clouds,dailyrainin,SoftwareType,DateUTC
2013-02-05 00:01:00,23.0,22.0,30.13,NW,313,0.0,-999.0,96,-99.99,,,-99.99,,2013-02-05 07:01:00,
2013-02-05 00:11:00,23.0,22.0,30.13,NW,313,0.0,-999.0,96,-99.99,,,-99.99,,2013-02-05 07:11:00,
2013-02-05 00:22:00,23.0,22.0,30.13,NW,313,0.0,-999.0,96,-99.99,,,-99.99,,2013-02-05 07:22:00,
2013-02-05 00:31:00,23.0,22.0,30.13,NW,313,0.0,-999.0,96,-99.99,,,-99.99,,2013-02-05 07:31:00,
2013-02-05 00:41:00,23.0,22.0,30.13,NW,313,0.0,-999.0,96,-99.99,,,-99.99,,2013-02-05 07:41:00,
2013-02-05 00:51:00,23.0,22.0,30.11,NW,306,0.0,-999.0,96,-99.99,,,-99.99,,2013-02-05 07:51:00,
2013-02-05 01:01:00,23.0,22.0,30.12,NW,306,0.0,-999.0,96,-99.99,,,-99.99,,2013-02-05 08:01:00,
2013-02-05 01:11:00,23.0,22.0,30.12,NW,306,0.0,-999.0,96,-99.99,,,-99.99,,2013-02-05 08:11:00,
2013-02-05 01:21:00,23.0,22.0,30.12,NW,307,0.0,-999.0,96,-99.99,,,-99.99,,2013-02-05 08:21:00,
2013-02-05 01:31:00,23.0,22.0,30.11,NW,307,0.0,-999.0,96,-99.99,,,-99.99,,2013-02-05 08:31:00,
2013-02-05 01:41:00,23.0,22.0,30.11,NW,307,0.0,-999.0,96,-99.99,,,-99.99,,2013-02-05 08:41:00,
2013-02-05 01:52:00,23.0,22.0,30.11,NW,308,0.0,-999.0,96,-99.99,,,-99.99,,2013-02-05 08:52:00,
2013-02-05 02:02:00,23.0,22.0,30.11,NW,306,0.0,-999.0,96,-99.99,,,-99.99,,2013-02-05 09:02:00,
2013-02-05 02:11:00,23.0,22.0,30.11,NW,306,0.0,-999.0,96,-99.99,,,-99.99,,2013-02-05 09:11:00,
2013-02-05 02:21:00,23.0,22.0,30.11,NW,307,0.0,-999.0,96,-99.99,,,-99.99,,2013-02-05 09:21:00,
2013-02-05 02:31:00,23.0,22.0,30.11,NW,308,0.0,-999.0,96,-99.99,,,-99.99,,2013-02-05 09:31:00,
2013-02-05 02:42:00,23.0,22.0,30.11,NW,308,0.0,-999.0,96,-99.99,,,-99.99,,2013-02-05 09:42:00,
2013-02-05 02:52:00,23.0,22.0,30.11,NW,308,0.0,-999.0,96,-99.99,,,-99.99,,2013-02-05 09:52:00,
2013-02-05 03:01:00,23.0,22.0,30.10,NW,308,0.0,-999.0,96,-99.99,,,-99.99,,2013-02-05 10:01:00,
2013-02-05 03:11:00,23.0,22.0,30.10,NW,308,0.0,-999.0,96,-99.99,,,-99.99,,2013-02-05 10:11:00,
2013-02-05 03:21:00,23.0,22.0,30.10,NW,307,0.0,-999.0,96,-99.99,,,-99.99,,2013-02-05 10:21:00,
2013-02-05 03:31:00,23.0,22.0,30.10,NW,308,0.0,-999.0,96,-99.99,,,-99.99,,2013-02-05 10:31:00,
2013-02-05 03:42:00,23.0,22.0,30.10,NW,308,0.0,-999.0,96,-99.99,,,-99.99,,2013-02-05 10:42:00,
2013-02-05 03:52:00,22.0,21.0,30.09,NW,308,0.0,-999.0,96,-99.99,,,-99.99,,2013-02-05 10:52:00,
2013-02-05 04:01:00,22.0,21.0,30.08,NW,308,0.0,-999.0,96,-99.99,,,-99.99,,2013-02-05 11:01:00,
2013-02-05 04:11:00,22.0,21.0,30.08,NW,308,0.0,-999.0,96,-99.99,,,-99.99,,2013-02-05 11:11:00,
2013-02-05 04:22:00,22.0,21.0,30.07,NW,308,0.0,-999.0,96,-99.99,,,-99.99,,2013-02-05 11:22:00,
2013-02-05 04:31:00,22.0,21.0,30.07,NW,308,0.0,-999.0,96,-99.99,,,-99.99,,2013-02-05 11:31:00,
2013-02-05 04:41:00,22.0,21.0,30.07,NW,308,0.0,-999.0,96,-99.99,,,-99.99,,2013-02-05 11:41:00,
2013-02-05 04:52:00,22.0,21.0,30.06,NW,308,0.0,-999.0,96,-99.99,,,-99.99,,2013-02-05 11:52:00,
2013-02-05 05:01:00,22.0,21.0,30.07,NW,308,0.0,-999.0,96,-99.99,,,-99.99,,2013-02-05 12:01:00,
2013-02-05 05:12:00,22.0,21.0,30.07,NW,308,0.0,-999.0,96,-99.99,,,-99.99,,2013-02-05 12:12:00,
2013-02-05 05:21:00,22.0,21.0,30.07,NW,308,0.0,-999.0,96,-99.99,,,-99.99,,2013-02-05 12:21:00,
2013-02-05 05:31:00,23.0,22.0,30.06,NW,308,0.0,-999.0,96,-99.99,,,-99.99,,2013-02-05 12:31:00,
2013-02-05 05:41:00,23.0,22.0,30.06,NW,308,0.0,-999.0,96,-99.99,,,-99.99,,2013-02-05 12:41:00,
2013-02-05 05:52:00,23.0,22.0,30.06,NW,308,0.0,-999.0,96,-99.99,,,-99.99,,2013-02-05 12:52:00,
2013-02-05 06:01:00,23.0,22.0,30.06,NW,308,0.0,-999.0,96,-99.99,,,-99.99,,2013-02-05 13:01:00,
2013-02-05 06:11:00,23.0,22.0,30.06,NW,308,0.0,-999.0,96,-99.99,,,-99.99,,2013-02-05 13:11:00,
2013-02-05 06:21:00,23.0,22.0,30.05,NW,309,0.0,-999.0,96,-99.99,,,-99.99,,2013-02-05 13:21:00,
2013-02-05 06:31:00,23.0,22.0,30.05,NW,308,0.0,-999.0,96,-99.99,,,-99.99,,2013-02-05 13:31:00,
2013-02-05 06:42:00,23.0,22.0,30.05,NW,308,0.0,-999.0,96,-99.99,,,-99.99,,2013-02-05 13:42:00,
2013-02-05 06:52:00,23.0,22.0,30.04,NW,308,0.0,-999.0,96,-99.99,,,-99.99,,2013-02-05 13:52:00,
2013-02-05 07:01:00,23.0,22.0,30.05,NW,309,0.0,-999.0,96,-99.99,,,-99.99,,2013-02-05 14:01:00,
2013-02-05 07:12:00,23.0,22.0,30.05,NW,309,0.0,-999.0,96,-99.99,,,-99.99,,2013-02-05 14:12:00,
2013-02-05 07:21:00,23.0,22.0,30.04,NW,309,0.0,-999.0,96,-99.99,,,-99.99,,2013-02-05 14:21:00,
2013-02-05 07:31:00,23.0,22.0,30.03,NW,309,0.0,-999.0,96,-99.99,,,-99.99,,2013-02-05 14:31:00,
2013-02-05 07:41:00,23.0,22.0,30.03,NW,309,0.0,-999.0,96,-99.99,,,-99.99,,2013-02-05 14:41:00,
2013-02-05 07:52:00,23.0,22.0,30.03,NW,309,0.0,-999.0,96,-99.99,,,-99.99,,2013-02-05 14:52:00,
2013-02-05 08:01:00,23.0,22.0,30.02,NW,314,0.0,-999.0,96,-99.99,,,-99.99,,2013-02-05 15:01:00,
2013-02-05 08:11:00,23.0,22.0,30.02,NW,314,0.0,-999.0,96,-99.99,,,-99.99,,2013-02-05 15:11:00,
2013-02-05 08:21:00,23.0,22.0,30.01,WNW,301,0.0,-999.0,96,-99.99,,,-99.99,,2013-02-05 15:21:00,
2013-02-05 08:32:00,23.0,22.0,30.01,WNW,297,3.0,-999.0,96,-99.99,,,-99.99,,2013-02-05 15:32:00,
2013-02-05 08:41:00,23.0,22.0,30.01,WNW,297,3.0,-999.0,96,-99.99,,,-99.99,,2013-02-05 15:41:00,
2013-02-05 08:52:00,23.0,22.0,30.01,WNW,287,3.0,-999.0,96,-99.99,,,-99.99,,2013-02-05 15:52:00,
2013-02-05 09:01:00,23.0,22.0,30.01,WNW,285,2.0,-999.0,96,-99.99,,,-99.99,,2013-02-05 16:01:00,
2013-02-05 09:11:00,23.0,22.0,30.01,WNW,285,2.0,-999.0,96,-99.99,,,-99.99,,2013-02-05 16:11:00,
2013-02-05 09:22:00,23.0,22.0,30.01,WNW,294,2.0,-999.0,96,-99.99,,,-99.99,,2013-02-05 16:22:00,
2013-02-05 09:32:00,23.0,22.0,30.01,WNW,288,2.0,-999.0,96,-99.99,,,-99.99,,2013-02-05 16:32:00,
2013-02-05 09:41:00,23.0,22.0,30.01,WNW,288,2.0,-999.0,96,-99.99,,,-99.99,,2013-02-05 16:41:00,
2013-02-05 09:52:00,23.0,22.0,30.01,WNW,295,4.0,-999.0,96,-99.99,,,-99.99,,2013-02-05 16:52:00,
2013-02-05 10:01:00,23.0,22.0,30.01,NW,322,4.0,-999.0,96,-99.99,,,-99.99,,2013-02-05 17:01:00,
2013-02-05 10:11:00,23.0,22.0,30.01,NW,322,4.0,-999.0,96,-99.99,,,-99.99,,2013-02-05 17:11:00,
2013-02-05 10:21:00,23.0,22.0,30.01,NW,309,3.0,-999.0,96,-99.99,,,-99.99,,2013-02-05 17:21:00,
2013-02-05 10:32:00,23.0,22.0,30.01,NW,322,3.0,-999.0,96,-99.99,,,-99.99,,2013-02-05 17:32:00,
2013-02-05 10:41:00,23.0,22.0,30.01,NW,322,3.0,-999.0,96,-99.99,,,-99.99,,2013-02-05 17:41:00,
2013-02-05 10:52:00,24.0,23.0,30.01,WNW,299,4.0,-999.0,97,-99.99,,,-99.99,,2013-02-05 17:52:00,
2013-02-05 11:01:00,24.0,23.0,30.01,NW,321,4.0,-999.0,97,-99.99,,,-99.99,,2013-02-05 18:01:00,
2013-02-05 11:11:00,24.0,23.0,30.01,NW,321,4.0,-999.0,97,-99.99,,,-99.99,,2013-02-05 18:11:00,
2013-02-05 11:21:00,24.0,23.0,30.01,WNW,295,6.0,-999.0,97,-99.99,,,-99.99,,2013-02-05 18:21:00,
2013-02-05 11:31:00,24.0,23.0,30.00,WNW,293,7.0,-999.0,97,-99.99,,,-99.99,,2013-02-05 18:31:00,
2013-02-05 11:42:00,24.0,23.0,30.00,WNW,293,7.0,-999.0,97,-99.99,,,-99.99,,2013-02-05 18:42:00,
2013-02-05 11:51:00,24.0,23.0,30.00,WNW,300,5.0,-999.0,97,-99.99,,,-99.99,,2013-02-05 18:51:00,
2013-02-05 12:02:00,24.0,23.0,30.00,WNW,288,4.0,-999.0,97,-99.99,,,-99.99,,2013-02-05 19:02:00,
2013-02-05 12:11:00,24.0,23.0,30.00,WNW,288,4.0,-999.0,97,-99.99,,,-99.99,,2013-02-05 19:11:00,
2013-02-05 12:21:00,24.0,23.0,29.99,WNW,293,5.0,-999.0,97,-99.99,,,-99.99,,2013-02-05 19:21:00,
2013-02-05 12:31:00,24.0,23.0,29.98,NW,314,5.0,-999.0,97,-99.99,,,-99.99,,2013-02-05 19:31:00,
2013-02-05 12:42:00,24.0,23.0,29.98,NW,314,5.0,-999.0,97,-99.99,,,-99.99,,2013-02-05 19:42:00,
2013-02-05 12:52:00,25.0,24.0,29.98,West,270,5.0,-999.0,97,-99.99,,,-99.99,,2013-02-05 19:52:00,
2013-02-05 13:01:00,25.0,24.0,29.97,WNW,292,4.0,-999.0,97,-99.99,,,-99.99,,2013-02-05 20:01:00,
2013-02-05 13:11:00,25.0,24.0,29.97,WNW,292,4.0,-999.0,97,-99.99,,,-99.99,,2013-02-05 20:11:00,
2013-02-05 13:21:00,25.0,24.0,29.97,WNW,287,4.0,-999.0,97,-99.99,,,-99.99,,2013-02-05 20:21:00,
2013-02-05 13:31:00,25.0,24.0,29.96,WNW,295,4.0,-999.0,97,-99.99,,,-99.99,,2013-02-05 20:31:00,
2013-02-05 13:41:00,25.0,24.0,29.96,WNW,295,4.0,-999.0,97,-99.99,,,-99.99,,2013-02-05 20:41:00,
2013-02-05 13:52:00,25.0,24.0,29.95,WNW,294,4.0,-999.0,97,-99.99,,,-99.99,,2013-02-05 20:52:00,
2013-02-05 14:01:00,25.0,24.0,29.95,WNW,291,4.0,-999.0,97,-99.99,,,-99.99,,2013-02-05 21:01:00,
2013-02-05 14:11:00,25.0,24.0,29.95,WNW,291,4.0,-999.0,97,-99.99,,,-99.99,,2013-02-05 21:11:00,
2013-02-05 14:21:00,26.0,25.0,29.93,NW,320,3.0,-999.0,97,-99.99,,,-99.99,,2013-02-05 21:21:00,
2013-02-05 14:31:00,26.0,25.0,29.93,WNW,288,4.0,-999.0,97,-99.99,,,-99.99,,2013-02-05 21:31:00,
2013-02-05 14:42:00,26.0,25.0,29.93,WNW,288,4.0,-999.0,97,-99.99,,,-99.99,,2013-02-05 21:42:00,
2013-02-05 14:52:00,26.0,25.0,29.92,WNW,288,4.0,-999.0,97,-99.99,,,-99.99,,2013-02-05 21:52:00,
2013-02-05 15:01:00,26.0,25.0,29.91,WNW,289,3.0,-999.0,97,-99.99,,,-99.99,,2013-02-05 22:01:00,
2013-02-05 15:11:00,26.0,25.0,29.91,WNW,289,3.0,-999.0,97,-99.99,,,-99.99,,2013-02-05 22:11:00,
2013-02-05 15:21:00,26.0,25.0,29.91,WNW,300,4.0,-999.0,97,-99.99,,,-99.99,,2013-02-05 22:21:00,
2013-02-05 15:31:00,26.0,25.0,29.90,WNW,288,3.0,-999.0,97,-99.99,,,-99.99,,2013-02-05 22:31:00,
2013-02-05 15:41:00,26.0,25.0,29.90,WNW,288,3.0,-999.0,97,-99.99,,,-99.99,,2013-02-05 22:41:00,
2013-02-05 15:52:00,26.0,25.0,29.90,WNW,287,4.0,-999.0,97,-99.99,,,-99.99,,2013-02-05 22:52:00,
2013-02-05 16:01:00,26.0,25.0,29.89,WNW,289,4.0,-999.0,97,-99.99,,,-99.99,,2013-02-05 23:01:00,
2013-02-05 16:11:00,26.0,25.0,29.89,WNW,289,4.0,-999.0,97,-99.99,,,-99.99,,2013-02-05 23:11:00,
2013-02-05 16:21:00,26.0,25.0,29.89,WNW,284,4.0,-999.0,97,-99.99,,,-99.99,,2013-02-05 23:21:00,
2013-02-05 16:31:00,26.0,25.0,29.89,WNW,284,4.0,-999.0,97,-99.99,,,-99.99,,2013-02-05 23:31:00,
2013-02-05 16:41:00,26.0,25.0,29.89,WNW,284,4.0,-999.0,97,-99.99,,,-99.99,,2013-02-05 23:41:00,
2013-02-05 16:52:00,26.0,25.0,29.89,NW,306,3.0,-999.0,97,-99.99,,,-99.99,,2013-02-05 23:52:00,
2013-02-05 17:01:00,26.0,25.0,29.88,NW,312,3.0,-999.0,97,-99.99,,,-99.99,,2013-02-06 00:01:00,
2013-02-05 17:11:00,26.0,25.0,29.88,NW,312,3.0,-999.0,97,-99.99,,,-99.99,,2013-02-06 00:11:00,
2013-02-05 17:21:00,26.0,25.0,29.88,NW,306,3.0,-999.0,97,-99.99,,,-99.99,,2013-02-06 00:21:00,
2013-02-05 17:31:00,26.0,25.0,29.88,North,359,3.0,-999.0,97,-99.99,,,-99.99,,2013-02-06 00:31:00,
2013-02-05 17:42:00,26.0,25.0,29.88,North,359,3.0,-999.0,97,-99.99,,,-99.99,,2013-02-06 00:42:00,
2013-02-05 17:52:00,26.0,25.0,29.88,NW,311,3.0,-999.0,97,-99.99,,,-99.99,,2013-02-06 00:52:00,
2013-02-05 18:01:00,26.0,25.0,29.88,NW,305,3.0,-999.0,97,-99.99,,,-99.99,,2013-02-06 01:01:00,
2013-02-05 18:11:00,26.0,25.0,29.88,NW,305,3.0,-999.0,97,-99.99,,,-99.99,,2013-02-06 01:11:00,
2013-02-05 18:21:00,25.0,24.0,29.88,North,354,3.0,-999.0,97,-99.99,,,-99.99,,2013-02-06 01:21:00,
2013-02-05 18:32:00,25.0,24.0,29.88,WNW,300,3.0,-999.0,97,-99.99,,,-99.99,,2013-02-06 01:32:00,
2013-02-05 18:41:00,25.0,24.0,29.88,WNW,300,3.0,-999.0,97,-99.99,,,-99.99,,2013-02-06 01:41:00,
2013-02-05 18:52:00,25.0,24.0,29.88,NW,325,3.0,-999.0,97,-99.99,,,-99.99,,2013-02-06 01:52:00,
2013-02-05 19:01:00,25.0,24.0,29.88,NNW,339,3.0,-999.0,97,-99.99,,,-99.99,,2013-02-06 02:01:00,
2013-02-05 19:11:00,25.0,24.0,29.88,NNW,339,3.0,-999.0,97,-99.99,,,-99.99,,2013-02-06 02:11:00,
2013-02-05 19:21:00,25.0,24.0,29.89,NW,313,1.0,-999.0,97,-99.99,,,-99.99,,2013-02-06 02:21:00,
2013-02-05 19:31:00,25.0,24.0,29.90,NNE,16,0.0,-999.0,97,-99.99,,,-99.99,,2013-02-06 02:31:00,
2013-02-05 19:41:00,25.0,24.0,29.90,NNE,16,0.0,-999.0,97,-99.99,,,-99.99,,2013-02-06 02:41:00,
2013-02-05 19:52:00,25.0,24.0,29.90,NE,44,0.0,-999.0,97,-99.99,,,-99.99,,2013-02-06 02:52:00,
2013-02-05 20:02:00,25.0,24.0,29.90,NW,312,1.0,-999.0,97,-99.99,,,-99.99,,2013-02-06 03:02:00,
2013-02-05 20:11:00,25.0,24.0,29.90,NW,312,1.0,-999.0,97,-99.99,,,-99.99,,2013-02-06 03:11:00,
2013-02-05 20:21:00,25.0,24.0,29.91,North,354,1.0,-999.0,97,-99.99,,,-99.99,,2013-02-06 03:21:00,
2013-02-05 20:31:00,25.0,24.0,29.90,NNW,335,1.0,-999.0,97,-99.99,,,-99.99,,2013-02-06 03:31:00,
2013-02-05 20:42:00,25.0,24.0,29.90,NNW,335,1.0,-999.0,97,-99.99,,,-99.99,,2013-02-06 03:42:00,
2013-02-05 20:52:00,25.0,24.0,29.89,West,268,1.0,-999.0,97,-99.99,,,-99.99,,2013-02-06 03:52:00,
2013-02-05 21:01:00,25.0,24.0,29.89,NW,316,1.0,-999.0,97,-99.99,,,-99.99,,2013-02-06 04:01:00,
2013-02-05 21:11:00,25.0,24.0,29.89,NW,316,1.0,-999.0,97,-99.99,,,-99.99,,2013-02-06 04:11:00,
2013-02-05 21:21:00,24.0,23.0,29.89,WNW,291,2.0,-999.0,97,-99.99,,,-99.99,,2013-02-06 04:21:00,
2013-02-05 21:31:00,24.0,23.0,29.89,WNW,291,2.0,-999.0,97,-99.99,,,-99.99,,2013-02-06 04:31:00,
2013-02-05 21:41:00,24.0,23.0,29.89,WNW,291,2.0,-999.0,97,-99.99,,,-99.99,,2013-02-06 04:41:00,
2013-02-05 21:52:00,24.0,23.0,29.90,NNW,343,1.0,-999.0,97,-99.99,,,-99.99,,2013-02-06 04:52:00,
2013-02-05 22:01:00,24.0,23.0,29.90,NW,308,2.0,-999.0,97,-99.99,,,-99.99,,2013-02-06 05:01:00,
2013-02-05 22:12:00,24.0,23.0,29.90,NW,308,2.0,-999.0,97,-99.99,,,-99.99,,2013-02-06 05:12:00,
2013-02-05 22:22:00,24.0,23.0,29.91,WNW,299,2.0,-999.0,97,-99.99,,,-99.99,,2013-02-06 05:22:00,
2013-02-05 22:31:00,24.0,23.0,29.93,WNW,297,2.0,-999.0,96,-99.99,,,-99.99,,2013-02-06 05:31:00,
2013-02-05 22:41:00,24.0,23.0,29.93,WNW,297,2.0,-999.0,96,-99.99,,,-99.99,,2013-02-06 05:41:00,
2013-02-05 22:53:00,24.0,23.0,29.94,NW,314,2.0,-999.0,97,-99.99,,,-99.99,,2013-02-06 05:53:00,
2013-02-05 23:01:00,24.0,23.0,29.94,NW,314,2.0,-999.0,97,-99.99,,,-99.99,,2013-02-06 06:01:00,
2013-02-05 23:11:00,24.0,23.0,29.94,NW,314,2.0,-999.0,97,-99.99,,,-99.99,,2013-02-06 06:11:00,
2013-02-05 23:21:00,24.0,23.0,29.95,NW,324,2.0,-999.0,96,-99.99,,,-99.99,,2013-02-06 06:21:00,
2013-02-05 23:31:00,24.0,23.0,29.95,NNW,333,1.0,-999.0,96,-99.99,,,-99.99,,2013-02-06 06:31:00,
2013-02-05 23:42:00,24.0,23.0,29.95,NNW,333,1.0,-999.0,96,-99.99,,,-99.99,,2013-02-06 06:42:00,
2013-02-05 23:51:00,24.0,23.0,29.96,NW,310,2.0,-999.0,96,-99.99,,,-99.99,,2013-02-06 06:51:00,